Location: Apollonia
(45.4499°N, 91.3019°W)
Time: 09:08:56
(UTC+00:00)

Envisat - Visible Passes

Search period start: 30 November 2021 00:00
Search period end: 10 December 2021 00:00
Orbit: 764 x 766 km, 98.2° (Epoch: 29 November)

Date Brightness Start Highest point End Pass type
(mag) Time Alt. Az. Time Alt. Az. Time Alt. Az.
30 Nov 5.9 09:46:07 10° ENE 09:48:41 14° E 09:51:15 10° ESE visible
30 Nov 2.9 11:23:12 10° N 11:28:18 78° WNW 11:33:23 10° SSW visible
01 Dec 3.8 10:46:27 10° NNE 10:51:24 49° E 10:56:19 10° S visible
01 Dec 4.0 12:26:07 10° NNW 12:30:06 24° WNW 12:34:05 10° WSW visible
01 Dec 6.1 23:45:13 10° WSW 23:47:40 13° W 23:50:08 10° WNW visible
02 Dec 5.2 10:10:14 10° NE 10:14:18 24° E 10:18:20 10° SE visible
02 Dec 3.2 11:48:40 10° N 11:53:32 47° WNW 11:58:22 10° SW visible
02 Dec 5.3 23:06:03 10° SSW 23:10:24 29° W 23:14:48 10° NW visible
03 Dec 6.1 09:35:52 10° ENE 09:36:59 11° E 09:38:04 10° E visible
03 Dec 3.0 11:11:38 10° NNE 11:16:46 84° ESE 11:21:50 10° SSW visible
03 Dec 4.5 12:52:18 10° NNW 12:55:06 15° WNW 12:57:53 10° W visible
04 Dec 4.3 10:35:01 10° NNE 10:39:48 39° E 10:44:32 10° SSE visible
04 Dec 3.8 12:14:19 10° N 12:18:39 29° WNW 12:22:58 10° WSW visible
04 Dec 5.9 23:32:41 10° SW 23:35:58 17° W 23:39:15 10° NW visible
05 Dec 5.5 09:59:04 10° NE 10:02:37 19° E 10:06:09 10° SE visible
05 Dec 3.0 11:37:01 10° N 11:42:01 59° WNW 11:47:00 10° SSW visible
05 Dec 4.8 22:54:08 10° SSW 22:58:46 36° W 23:03:27 10° NNW visible
06 Dec 3.3 11:00:07 10° NNE 11:05:12 67° ESE 11:10:14 10° S visible
06 Dec 4.3 12:40:17 10° NNW 12:43:41 18° WNW 12:47:05 10° WSW visible
07 Dec 4.7 10:23:39 10° NNE 10:28:10 31° E 10:32:39 10° SSE visible
07 Dec 3.5 12:02:35 10° N 12:07:11 35° WNW 12:11:46 10° SW visible
07 Dec 5.7 23:20:26 10° SW 23:24:17 21° W 23:28:09 10° NW visible
08 Dec 5.8 09:48:05 10° NE 09:50:56 15° E 09:53:46 10° ESE visible
08 Dec 2.8 11:25:25 10° N 11:30:30 73° WNW 11:35:33 10° SSW visible
09 Dec 3.7 10:48:37 10° NNE 10:53:36 53° E 10:58:33 10° S visible
09 Dec 4.1 12:28:23 10° NNW 12:32:15 22° WNW 12:36:07 10° WSW visible
09 Dec 6.1 23:47:47 10° WSW 23:49:54 12° W 23:52:01 10° WNW visible
